Location: Buisson
(44.2787°N, 4.9969°E)
Time: 06:20:34
(UTC+00:00)

X-37B - Pass Details

Date: 30 September 2021
Orbit: 385 x 389 km, 45.0° (Epoch: 13 October)

Event Time Altitude Azimuth Distance (km) Brightness Sun altitude
Exits shadow 03:39:22 55° 74° (ENE) 469 1.2 -21.5°
Drops below altitude 10° 03:41:59 10° 91° (E) 1,413 4.4 -21.1°
Sets 03:44:03 0° 93° (E) 2,268 5.7 -20.7°
